| time (UTC) | temp F | wind direction | speed knots | gust knots | rain 1hr in | rain 24hr in | rain mn in | humidity % | barometer mb |
| 20260507020051 | 65 | 323 | 4.3 | 10.4 | 0.00 | 0.00 | 0.00 | 68 | 1020.1 |
| 20260507014553 | 66 | 308 | 6.1 | 10.4 | 0.00 | 0.00 | 0.00 | 67 | 1020.2 |
| 20260507013056 | 66 | 283 | 5.2 | 10.4 | 0.00 | 0.00 | 0.00 | 67 | 1020.0 |
| 20260507011544 | 66 | 0 | 0.0 | 1.7 | 0.00 | 0.00 | 0.00 | 71 | 1020.0 |
| 20260507010045 | 67 | 336 | 0.9 | 7.0 | 0.00 | 0.00 | 0.00 | 72 | 1019.9 |
| 20260507004543 | 67 | 0 | 0.0 | 1.7 | 0.00 | 0.00 | 0.00 | 71 | 1020.0 |
| 20260507003045 | 67 | 0 | 0.0 | 3.5 | 0.00 | 0.00 | 0.00 | 69 | 1020.0 |
| 20260507001544 | 67 | 0 | 0.0 | 1.7 | 0.00 | 0.00 | 0.00 | 68 | 1019.9 |
| 20260507000048 | 67 | 0 | 0.0 | 4.3 | 0.00 | 0.00 | 0.00 | 69 | 1019.9 |
| 20260506234542 | 68 | 0 | 0.0 | 2.6 | 0.00 | 0.00 | 0.00 | 65 | 1019.9 |
| 20260506233045 | 68 | 0 | 0.0 | 0.9 | 0.00 | 0.00 | 0.00 | 66 | 1019.9 |
| 20260506231545 | 68 | 0 | 0.0 | 0.9 | 0.00 | 0.00 | 0.00 | 65 | 1019.9 |
| 20260506230044 | 68 | 0 | 0.0 | 1.7 | 0.00 | 0.00 | 0.00 | 66 | 1020.1 |
| 20260506224601 | 68 | 318 | 0.0 | 1.7 | 0.00 | 0.00 | 0.00 | 67 | 1020.3 |
| 20260506223050 | 68 | 0 | 0.9 | 5.2 | 0.00 | 0.00 | 0.00 | 63 | 1020.4 |
| 20260506221548 | 68 | 0 | 0.0 | 3.5 | 0.00 | 0.00 | 0.00 | 67 | 1020.6 |
| 20260506220048 | 68 | 0 | 0.9 | 4.3 | 0.00 | 0.00 | 0.00 | 67 | 1020.6 |
| 20260506214601 | 67 | 319 | 1.7 | 5.2 | 0.00 | 0.00 | 0.00 | 68 | 1020.5 |
| 20260506213048 | 65 | 0 | 0.9 | 4.3 | 0.00 | 0.00 | 0.00 | 75 | 1020.7 |
| 20260506211541 | 64 | 0 | 0.0 | 2.6 | 0.00 | 0.00 | 0.00 | 76 | 1020.9 |
| 20260506210052 | 63 | 0 | 0.0 | 0.9 | 0.00 | 0.00 | 0.00 | 75 | 1020.9 |
| 20260506204549 | 63 | 0 | 0.0 | 1.7 | 0.00 | 0.00 | 0.00 | 77 | 1020.9 |
| 20260506203047 | 62 | 0 | 0.0 | 0.9 | 0.00 | 0.00 | 0.00 | 78 | 1020.8 |
| 20260506201545 | 62 | 0 | 0.0 | 1.7 | 0.00 | 0.00 | 0.00 | 79 | 1021.0 |
| 20260506200049 | 62 | 0 | 0.0 | 2.6 | 0.00 | 0.00 | 0.00 | 78 | 1021.0 |
| 20260506194600 | 62 | 0 | 0.9 | 3.5 | 0.00 | 0.00 | 0.00 | 77 | 1021.2 |
| 20260506193043 | 62 | 298 | 0.0 | 2.6 | 0.00 | 0.00 | 0.00 | 77 | 1021.2 |
| 20260506191543 | 62 | 0 | 0.9 | 2.6 | 0.00 | 0.00 | 0.00 | 75 | 1021.1 |
| 20260506190044 | 62 | 298 | 0.9 | 3.5 | 0.00 | 0.00 | 0.00 | 77 | 1021.1 |
| 20260506184540 | 61 | 0 | 1.7 | 6.1 | 0.00 | 0.00 | 0.00 | 77 | 1021.0 |
| 20260506183043 | 61 | 299 | 1.7 | 6.1 | 0.00 | 0.00 | 0.00 | 77 | 1021.1 |
| 20260506181548 | 61 | 0 | 0.0 | 2.6 | 0.00 | 0.00 | 0.00 | 78 | 1021.1 |
| 20260506180049 | 61 | 301 | 0.0 | 4.3 | 0.00 | 0.00 | 0.00 | 78 | 1021.1 |
| 20260506174542 | 61 | 0 | 0.0 | 2.6 | 0.00 | 0.00 | 0.00 | 77 | 1021.0 |
| 20260506173050 | 60 | 333 | 0.0 | 2.6 | 0.00 | 0.00 | 0.00 | 78 | 1020.9 |
| 20260506171554 | 60 | 334 | 0.0 | 2.6 | 0.00 | 0.00 | 0.00 | 80 | 1020.9 |
| 20260506170049 | 59 | 334 | 0.9 | 5.2 | 0.00 | 0.00 | 0.00 | 81 | 1020.9 |
| 20260506164544 | 59 | 0 | 0.0 | 3.5 | 0.00 | 0.00 | 0.00 | 82 | 1020.9 |
| 20260506163049 | 58 | 0 | 0.0 | 2.6 | 0.00 | 0.00 | 0.00 | 83 | 1020.7 |
| 20260506161553 | 57 | 0 | 0.0 | 2.6 | 0.00 | 0.00 | 0.00 | 84 | 1020.6 |
| 20260506160049 | 57 | 0 | 0.0 | 1.7 | 0.00 | 0.00 | 0.00 | 84 | 1020.3 |
| 20260506154607 | 56 | 0 | 0.0 | 6.1 | 0.00 | 0.00 | 0.00 | 84 | 1020.3 |
| 20260506153043 | 56 | 302 | 0.9 | 4.3 | 0.00 | 0.00 | 0.00 | 85 | 1020.9 |
| 20260506151543 | 56 | 279 | 3.5 | 7.8 | 0.00 | 0.00 | 0.00 | 85 | 1021.0 |
| 20260506150047 | 56 | 289 | 1.7 | 7.0 | 0.00 | 0.00 | 0.00 | 85 | 1020.7 |
| 20260506144547 | 57 | 298 | 3.5 | 7.8 | 0.00 | 0.00 | 0.00 | 86 | 1020.7 |
| 20260506143045 | 56 | 0 | 0.9 | 3.5 | 0.00 | 0.00 | 0.00 | 86 | 1020.2 |
| 20260506141545 | 56 | 314 | 0.0 | 3.5 | 0.00 | 0.00 | 0.00 | 88 | 1020.1 |
| 20260506140055 | 56 | 0 | 0.0 | 0.9 | 0.00 | 0.00 | 0.00 | 88 | 1020.2 |
| 20260506134543 | 56 | 0 | 0.0 | 0.0 | 0.00 | 0.00 | 0.00 | 87 | 1019.8 |
| 20260506133052 | 56 | 0 | 0.0 | 0.0 | 0.00 | 0.00 | 0.00 | 86 | 1019.7 |
| 20260506131544 | 56 | 0 | 0.0 | 0.0 | 0.00 | 0.00 | 0.00 | 86 | 1019.7 |
| 20260506130044 | 56 | 0 | 0.0 | 0.0 | 0.00 | 0.00 | 0.00 | 85 | 1019.5 |
| 20260506124543 | 56 | 313 | 0.0 | 2.6 | 0.00 | 0.00 | 0.00 | 85 | 1019.5 |
| 20260506123042 | 56 | 313 | 0.0 | 3.5 | 0.00 | 0.00 | 0.00 | 85 | 1019.5 |
| 20260506121545 | 57 | 313 | 1.7 | 3.5 | 0.00 | 0.00 | 0.00 | 85 | 1019.5 |
| 20260506120050 | 57 | 0 | 0.0 | 4.3 | 0.00 | 0.00 | 0.00 | 85 | 1019.3 |
| 20260506114543 | 57 | 321 | 1.7 | 4.3 | 0.00 | 0.00 | 0.00 | 84 | 1019.2 |
| 20260506113048 | 57 | 0 | 0.9 | 6.1 | 0.00 | 0.00 | 0.00 | 84 | 1019.1 |
| 20260506111543 | 57 | 286 | 0.9 | 6.1 | 0.00 | 0.00 | 0.00 | 84 | 1018.8 |
| 20260506110048 | 57 | 292 | 1.7 | 4.3 | 0.00 | 0.00 | 0.00 | 84 | 1018.7 |
| 20260506104554 | 57 | 315 | 0.0 | 3.5 | 0.00 | 0.00 | 0.00 | 84 | 1018.5 |
| 20260506103044 | 57 | 0 | 0.9 | 4.3 | 0.00 | 0.00 | 0.00 | 83 | 1018.4 |
| 20260506101549 | 58 | 317 | 1.7 | 3.5 | 0.00 | 0.00 | 0.00 | 82 | 1018.1 |
| 20260506100042 | 58 | 0 | 0.9 | 2.6 | 0.00 | 0.00 | 0.00 | 83 | 1018.1 |
| 20260506094540 | 58 | 0 | 0.0 | 0.0 | 0.00 | 0.00 | 0.00 | 83 | 1018.1 |
| 20260506093043 | 58 | 317 | 0.0 | 2.6 | 0.00 | 0.00 | 0.00 | 83 | 1017.9 |
| 20260506091543 | 58 | 0 | 0.0 | 1.7 | 0.00 | 0.00 | 0.00 | 83 | 1017.9 |
| 20260506090042 | 58 | 0 | 0.0 | 1.7 | 0.00 | 0.00 | 0.00 | 83 | 1017.9 |
| 20260506084544 | 58 | 0 | 0.0 | 2.6 | 0.00 | 0.00 | 0.00 | 83 | 1017.8 |
| 20260506083050 | 59 | 0 | 0.0 | 2.6 | 0.00 | 0.00 | 0.00 | 84 | 1018.0 |
| 20260506081544 | 59 | 0 | 0.9 | 3.5 | 0.00 | 0.00 | 0.00 | 86 | 1017.8 |
| 20260506073046 | 59 | 0 | 0.0 | 0.0 | 0.00 | 0.00 | 0.00 | 87 | 1017.5 |
| 20260506071541 | 59 | 0 | 0.0 | 0.0 | 0.00 | 0.00 | 0.00 | 87 | 1017.4 |
| 20260506061543 | 60 | 0 | 0.0 | 0.0 | 0.00 | 0.00 | 0.00 | 85 | 1017.1 |
| 20260506044611 | 60 | 0 | 0.0 | 0.9 | 0.00 | 0.00 | 0.00 | 82 | 1016.5 |
| 20260506043046 | 60 | 0 | 0.0 | 0.9 | 0.00 | 0.00 | 0.00 | 81 | 1016.5 |
| 20260506041545 | 61 | 319 | 0.0 | 2.6 | 0.00 | 0.00 | 0.00 | 80 | 1016.2 |
| 20260506040047 | 61 | 0 | 0.0 | 0.0 | 0.00 | 0.00 | 0.00 | 81 | 1016.0 |
| 20260506034549 | 61 | 0 | 0.0 | 0.0 | 0.00 | 0.00 | 0.00 | 79 | 1015.9 |
| 20260506033041 | 62 | 0 | 0.0 | 0.0 | 0.00 | 0.00 | 0.00 | 78 | 1015.7 |
| 20260506031549 | 62 | 0 | 0.0 | 0.0 | 0.00 | 0.00 | 0.00 | 78 | 1015.6 |
| 20260506030044 | 62 | 0 | 0.0 | 0.0 | 0.00 | 0.00 | 0.00 | 77 | 1015.6 |
| 20260506024547 | 62 | 0 | 0.0 | 0.0 | 0.00 | 0.00 | 0.00 | 76 | 1015.5 |
| 20260506023057 | 62 | 0 | 0.0 | 0.9 | 0.00 | 0.00 | 0.00 | 75 | 1015.6 |
| 20260506021555 | 63 | 0 | 0.0 | 0.0 | 0.00 | 0.00 | 0.00 | 75 | 1015.4 |